User: anonymous   Login
Location: Unspecified
(0.0000°N, 0.0000°E)
Time: 18:08:38
(UTC+00:00)
Language:

STARLINK-3151 - Orbit

View from above orbital plane
View from above orbital plane
View from above satellite
View from above satellite

Ground track
Ground track

The orbit is defined by the following mean orbital elements,

1 49408U          26145.50003470 +.00000000 +00000-0 +14672-2 0 00007
2 49408  53.2137 214.7164 0001998  61.5947 287.1641 15.84993788    03
Epoch (UTC): 25 May 2026 12:00:02
Eccentricity: 0.0001998
inclination: 53.2137°
perigee height: 315 km
apogee height: 318 km
right ascension of ascending node: 214.7164°
argument of perigee: 61.5947°
revolutions per day: 15.84993788
mean anomaly at epoch: 287.1641°

The dashed part of the orbit path shows where the satellite is in the earth's shadow,  

DLR